EW1669 Weather Reports


Display with metric or nautical units.
time (UTC)temp
F
wind
direction
speed
MPH
gust
MPH
rain 1hr
in
rain 24hr
in
rain mn
in
humidity
%
barometer
mb
20260903215608 97 179 0.0 0.0 0.00 0.00 0.00 22 1015.3
20260903215540 98 131 0.0 0.0 0.00 0.00 0.00 21 1015.6
20260903214816 99 175 0.0 3.0 0.00 0.00 0.00 20 1015.3
20260903213917 98 116 0.0 3.0 0.00 0.00 0.00 20 1015.6
20260903213354 97 78 0.0 10.0 0.00 0.00 0.00 22 1015.6
20260903212844 99 152 8.0 10.0 0.00 0.00 0.00 21 1015.6
20260903212342 99 162 5.0 7.0 0.00 0.00 0.00 21 1015.6
20260903211826 98 146 0.0 6.0 0.00 0.00 0.00 21 1015.6
20260903211310 98 347 0.0 6.0 0.00 0.00 0.00 21 1015.6
20260903210753 98 54 2.0 6.0 0.00 0.00 0.00 23 1016.0
20260903210248 99 141 0.0 2.0 0.00 0.00 0.00 20 1016.0
20260903205742 99 122 0.0 0.0 0.00 0.00 0.00 22 1016.0
20260903205231 98 182 0.0 2.0 0.00 0.00 0.00 21 1016.0
20260903204619 98 281 0.0 1.0 0.00 0.00 0.00 22 1016.3
20260903204023 97 190 0.0 0.0 0.00 0.00 0.00 22 1016.0
20260903203508 96 155 0.0 0.0 0.00 0.00 0.00 23 1016.0
20260903202948 96 151 0.0 1.0 0.00 0.00 0.00 22 1016.3
20260903202430 98 126 0.0 1.0 0.00 0.00 0.00 22 1016.3
20260903202126 98 125 0.0 3.0 0.00 0.00 0.00 24 1016.3
20260903201343 97 123 2.0 3.0 0.00 0.00 0.00 22 1016.7
20260903200819 96 194 0.0 1.0 0.00 0.00 0.00 23 1016.7
20260903200305 96 175 0.0 2.0 0.00 0.00 0.00 23 1016.7
20260903195740 95 204 0.0 2.0 0.00 0.00 0.00 23 1016.7
20260903195152 96 134 0.0 4.0 0.00 0.00 0.00 23 1016.7
20260903194906 97 121 0.0 7.0 0.00 0.00 0.00 22 1016.7
20260903194113 99 196 2.0 7.0 0.00 0.00 0.00 21 1016.7
20260903193812 97 134 0.0 7.0 0.00 0.00 0.00 23 1016.7
20260903193033 96 142 0.0 7.0 0.00 0.00 0.00 23 1016.7
20260903192529 95 117 2.0 4.0 0.00 0.00 0.00 24 1017.0
20260903192215 95 178 0.0 3.0 0.00 0.00 0.00 23 1017.3
20260903191402 96 270 0.0 0.0 0.00 0.00 0.00 23 1017.3
20260903190737 96 125 0.0 0.0 0.00 0.00 0.00 25 1017.0
20260903190208 100 186 0.0 1.0 0.00 0.00 0.00 21 1017.3
20260903190124 101 196 0.0 1.0 0.00 0.00 0.00 21 1017.7
20260903185309 100 183 0.0 1.0 0.00 0.00 0.00 21 1017.3
20260903184745 100 199 0.0 0.0 0.00 0.00 0.00 21 1018.0
20260903184150 98 181 0.0 0.0 0.00 0.00 0.00 22 1017.7
20260903184026 98 185 0.0 0.0 0.00 0.00 0.00 22 1017.3
20260903182857 98 279 0.0 0.0 0.00 0.00 0.00 23 1017.7
20260903182338 98 187 0.0 0.0 0.00 0.00 0.00 23 1018.0
20260903181815 99 198 0.0 0.0 0.00 0.00 0.00 23 1018.0
20260903181238 97 169 0.0 0.0 0.00 0.00 0.00 23 1018.0
20260903180654 96 105 0.0 0.0 0.00 0.00 0.00 26 1018.3
20260903180615 98 165 0.0 1.0 0.00 0.00 0.00 23 1018.3
20260903175542 99 187 0.0 1.0 0.00 0.00 0.00 23 1018.3
20260903175037 97 263 0.0 0.0 0.00 0.00 0.00 24 1018.3
20260903174534 96 149 0.0 0.0 0.00 0.00 0.00 25 1018.3
20260903174034 97 189 0.0 0.0 0.00 0.00 0.00 24 1018.3
20260903173529 97 185 0.0 2.0 0.00 0.00 0.00 25 1018.3
20260903173016 96 190 0.0 2.0 0.00 0.00 0.00 26 1018.3
20260903172739 97 122 0.0 0.0 0.00 0.00 0.00 25 1018.0
20260903172005 96 207 0.0 4.0 0.00 0.00 0.00 25 1018.3
20260903171456 94 177 0.0 4.0 0.00 0.00 0.00 27 1018.3
20260903171216 95 185 0.0 2.0 0.00 0.00 0.00 27 1018.3
20260903170438 95 140 0.0 1.0 0.00 0.00 0.00 28 1018.3
20260903165920 94 191 0.0 1.0 0.00 0.00 0.00 28 1018.3
20260903165403 94 184 0.0 2.0 0.00 0.00 0.00 27 1018.7
20260903164858 93 166 0.0 2.0 0.00 0.00 0.00 28 1018.3
20260903164344 92 191 0.0 6.0 0.00 0.00 0.00 30 1018.3
20260903164104 92 183 0.0 7.0 0.00 0.00 0.00 30 1018.3
20260903163812 92 204 3.0 8.0 0.00 0.00 0.00 30 1018.7
20260903163317 92 168 0.0 8.0 0.00 0.00 0.00 31 1018.3
20260903162534 91 167 0.0 6.0 0.00 0.00 0.00 32 1018.3
20260903161806 90 184 0.0 6.0 0.00 0.00 0.00 33 1018.3
20260903161257 90 212 2.0 7.0 0.00 0.00 0.00 32 1018.7
20260903160755 89 198 0.0 7.0 0.00 0.00 0.00 33 1018.3
20260903160233 89 201 1.0 4.0 0.00 0.00 0.00 33 1018.7
20260903155950 88 197 1.0 7.0 0.00 0.00 0.00 33 1018.3
20260903155219 88 168 1.0 7.0 0.00 0.00 0.00 33 1018.3
20260903154716 88 217 0.0 11.0 0.00 0.00 0.00 34 1018.3
20260903154436 87 195 0.0 11.0 0.00 0.00 0.00 35 1018.3
20260903153713 87 167 4.0 9.0 0.00 0.00 0.00 35 1018.3
20260903153433 87 190 0.0 9.0 0.00 0.00 0.00 36 1018.3
20260903152704 86 197 0.0 9.0 0.00 0.00 0.00 36 1018.7
20260903152155 86 182 0.0 8.0 0.00 0.00 0.00 36 1018.3
20260903151649 85 211 0.0 8.0 0.00 0.00 0.00 38 1018.3
20260903151402 85 208 0.0 3.0 0.00 0.00 0.00 38 1018.7
20260903150632 85 192 0.0 6.0 0.00 0.00 0.00 39 1018.3
20260903150127 83 193 2.0 8.0 0.00 0.00 0.00 40 1018.3
20260903145625 83 196 1.0 8.0 0.00 0.00 0.00 41 1018.3
20260903145343 83 190 0.0 6.0 0.00 0.00 0.00 41 1018.7
20260903144833 83 195 0.0 8.0 0.00 0.00 0.00 40 1018.7
20260903144104 82 196 0.0 8.0 0.00 0.00 0.00 41 1018.7
20260903144022 82 187 1.0 7.0 0.00 0.00 0.00 41 1018.7
20260903143024 81 188 2.0 7.0 0.00 0.00 0.00 42 1018.7
20260903142523 81 203 1.0 8.0 0.00 0.00 0.00 43 1018.7
20260903142016 81 213 4.0 8.0 0.00 0.00 0.00 43 1018.7
20260903141503 81 180 0.0 7.0 0.00 0.00 0.00 43 1018.7
20260903140956 80 194 2.0 7.0 0.00 0.00 0.00 44 1018.3
20260903140449 79 188 0.0 6.0 0.00 0.00 0.00 45 1018.3
20260903135942 79 183 0.0 4.0 0.00 0.00 0.00 45 1018.7
20260903135435 78 209 1.0 4.0 0.00 0.00 0.00 45 1018.3
20260903134933 77 203 1.0 4.0 0.00 0.00 0.00 47 1018.7
20260903134428 77 183 0.0 4.0 0.00 0.00 0.00 47 1018.7
20260903133915 77 178 0.0 0.0 0.00 0.00 0.00 47 1018.7
20260903133413 76 191 0.0 0.0 0.00 0.00 0.00 48 1018.7
20260903132908 76 186 0.0 0.0 0.00 0.00 0.00 48 1018.3
20260903132401 76 166 0.0 0.0 0.00 0.00 0.00 48 1018.3
20260903131853 75 185 0.0 0.0 0.00 0.00 0.00 49 1018.3
20260903131331 74 149 0.0 2.0 0.00 0.00 0.00 49 1018.3
20260903130831 74 132 0.0 3.0 0.00 0.00 0.00 50 1018.3
20260903130331 73 184 0.0 3.0 0.00 0.00 0.00 50 1018.3
20260903125827 73 134 0.0 3.0 0.00 0.00 0.00 51 1018.3
20260903125317 72 152 1.0 3.0 0.00 0.00 0.00 51 1018.3
20260903124812 72 134 0.0 4.0 0.00 0.00 0.00 52 1018.3
20260903124311 72 141 0.0 4.0 0.00 0.00 0.00 51 1018.0
20260903123807 72 146 0.0 0.0 0.00 0.00 0.00 51 1018.0
20260903123258 72 141 0.0 0.0 0.00 0.00 0.00 51 1018.0
20260903122752 72 143 0.0 0.0 0.00 0.00 0.00 52 1018.0
20260903122245 72 152 0.0 0.0 0.00 0.00 0.00 52 1018.0
20260903121734 72 147 0.0 0.0 0.00 0.00 0.00 51 1018.0
20260903121226 72 144 0.0 0.0 0.00 0.00 0.00 51 1018.0
20260903120945 72 149 0.0 0.0 0.00 0.00 0.00 51 1018.0
20260903120217 72 143 0.0 0.0 0.00 0.00 0.00 51 1018.0
20260903115709 72 144 0.0 0.0 0.00 0.00 0.00 50 1018.0
20260903115648 73 140 0.0 0.0 0.00 0.00 0.00 50 1018.3
20260903114705 73 131 0.0 2.0 0.00 0.00 0.00 49 1018.0
20260903114421 73 150 0.0 4.0 0.00 0.00 0.00 49 1018.0
20260903113702 73 138 0.0 6.0 0.00 0.00 0.00 49 1018.0
20260903113152 73 143 1.0 6.0 0.00 0.00 0.00 48 1017.7
20260903112647 73 128 0.0 2.0 0.00 0.00 0.00 48 1018.0
20260903112134 73 162 0.0 6.0 0.00 0.00 0.00 48 1017.7
20260903111622 73 118 3.0 6.0 0.00 0.00 0.00 48 1018.0
20260903111115 73 132 0.0 0.0 0.00 0.00 0.00 49 1017.7
20260903110615 73 153 0.0 6.0 0.00 0.00 0.00 48 1018.0
20260903110521 73 149 0.0 6.0 0.00 0.00 0.00 48 1017.7
20260903110147 73 146 0.0 6.0 0.00 0.00 0.00 48 1018.0
20260903105318 73 149 0.0 3.0 0.00 0.00 0.00 48 1017.7
20260903104545 73 131 0.0 4.0 0.00 0.00 0.00 48 1018.0
20260903104041 74 139 0.0 4.0 0.00 0.00 0.00 47 1017.3
20260903103541 74 131 0.0 1.0 0.00 0.00 0.00 47 1017.7
20260903103032 74 159 0.0 1.0 0.00 0.00 0.00 47 1017.7
20260903102749 74 153 0.0 3.0 0.00 0.00 0.00 47 1017.7
20260903102013 73 144 0.0 3.0 0.00 0.00 0.00 48 1018.0
20260903101507 73 145 0.0 2.0 0.00 0.00 0.00 48 1017.7
20260903100953 73 157 0.0 2.0 0.00 0.00 0.00 49 1018.0
20260903100707 73 137 0.0 3.0 0.00 0.00 0.00 49 1018.0
20260903095937 73 145 0.0 3.0 0.00 0.00 0.00 49 1018.0
20260903095435 74 146 0.0 0.0 0.00 0.00 0.00 48 1018.0
20260903094931 74 150 0.0 2.0 0.00 0.00 0.00 48 1018.0
20260903094424 74 143 0.0 2.0 0.00 0.00 0.00 47 1018.3
20260903093912 74 135 0.0 0.0 0.00 0.00 0.00 48 1018.0
20260903093412 74 140 0.0 0.0 0.00 0.00 0.00 48 1018.0
20260903092903 73 126 0.0 1.0 0.00 0.00 0.00 48 1018.0
20260903092403 74 190 0.0 0.0 0.00 0.00 0.00 48 1017.7
20260903091901 74 187 0.0 0.0 0.00 0.00 0.00 48 1018.0
20260903091350 74 201 0.0 0.0 0.00 0.00 0.00 48 1018.0
20260903090847 74 195 0.0 0.0 0.00 0.00 0.00 48 1018.3
20260903090346 74 193 0.0 0.0 0.00 0.00 0.00 48 1018.3
20260903085844 74 176 0.0 0.0 0.00 0.00 0.00 48 1018.0
20260903085337 74 134 0.0 0.0 0.00 0.00 0.00 49 1018.0
20260903084824 74 179 0.0 0.0 0.00 0.00 0.00 49 1018.3
20260903084312 74 176 0.0 1.0 0.00 0.00 0.00 49 1018.0
20260903083813 74 153 0.0 0.0 0.00 0.00 0.00 48 1018.0
20260903083300 74 170 0.0 0.0 0.00 0.00 0.00 48 1018.0
20260903082755 74 119 0.0 0.0 0.00 0.00 0.00 48 1018.3
20260903082251 74 135 0.0 1.0 0.00 0.00 0.00 48 1018.0
20260903081739 74 155 0.0 1.0 0.00 0.00 0.00 48 1018.0
20260903081234 74 139 0.0 1.0 0.00 0.00 0.00 49 1018.0
20260903080951 74 162 0.0 0.0 0.00 0.00 0.00 49 1018.3
20260903080230 74 145 0.0 0.0 0.00 0.00 0.00 49 1018.3
20260903075720 75 135 0.0 1.0 0.00 0.00 0.00 49 1018.3
20260903075215 75 139 0.0 3.0 0.00 0.00 0.00 49 1018.0
20260903074715 75 170 1.0 3.0 0.00 0.00 0.00 48 1018.0
20260903074205 75 188 0.0 4.0 0.00 0.00 0.00 48 1018.3
20260903073658 75 124 0.0 4.0 0.00 0.00 0.00 48 1018.0
20260903073141 76 134 3.0 4.0 0.00 0.00 0.00 48 1018.3
20260903072641 76 145 0.0 0.0 0.00 0.00 0.00 48 1018.3
20260903072350 76 160 0.0 0.0 0.00 0.00 0.00 47 1018.3
20260903071630 75 144 0.0 3.0 0.00 0.00 0.00 47 1018.3
20260903071131 76 148 0.0 3.0 0.00 0.00 0.00 47 1018.3
20260903070616 75 145 0.0 1.0 0.00 0.00 0.00 48 1018.0
20260903070107 75 194 0.0 2.0 0.00 0.00 0.00 48 1018.3
20260903065605 76 175 0.0 2.0 0.00 0.00 0.00 47 1018.3
20260903065054 76 189 0.0 0.0 0.00 0.00 0.00 47 1018.3
20260903064552 76 172 0.0 1.0 0.00 0.00 0.00 47 1018.3
20260903064047 76 161 0.0 1.0 0.00 0.00 0.00 46 1018.3
20260903063541 77 143 0.0 2.0 0.00 0.00 0.00 46 1018.3
20260903063035 77 164 0.0 3.0 0.00 0.00 0.00 45 1018.3
20260903062530 77 136 1.0 3.0 0.00 0.00 0.00 46 1018.3
20260903062025 77 122 1.0 4.0 0.00 0.00 0.00 46 1018.3
20260903061516 77 135 0.0 8.0 0.00 0.00 0.00 45 1018.3
20260903061007 78 152 0.0 7.0 0.00 0.00 0.00 45 1018.3
20260903060454 78 146 1.0 6.0 0.00 0.00 0.00 45 1018.0
20260903055946 78 142 0.0 7.0 0.00 0.00 0.00 45 1018.0
20260903055701 78 134 1.0 7.0 0.00 0.00 0.00 45 1018.3
20260903054930 78 130 2.0 7.0 0.00 0.00 0.00 45 1018.3
20260903054421 77 150 0.0 6.0 0.00 0.00 0.00 46 1018.3
20260903053900 77 153 0.0 6.0 0.00 0.00 0.00 46 1018.3
20260903053356 77 164 0.0 7.0 0.00 0.00 0.00 46 1018.3
20260903052837 77 142 0.0 7.0 0.00 0.00 0.00 46 1018.3
20260903052333 77 123 4.0 7.0 0.00 0.00 0.00 46 1018.3
20260903051832 77 150 0.0 6.0 0.00 0.00 0.00 46 1018.3
20260903051315 77 122 1.0 6.0 0.00 0.00 0.00 46 1018.3
20260903050811 77 146 0.0 4.0 0.00 0.00 0.00 47 1018.3
20260903050303 77 133 0.0 4.0 0.00 0.00 0.00 48 1018.3
20260903045750 77 144 0.0 4.0 0.00 0.00 0.00 47 1018.3
20260903045238 77 147 0.0 4.0 0.00 0.00 0.00 47 1018.3
20260903044952 77 158 1.0 3.0 0.00 0.00 0.00 47 1018.3
20260903044228 77 137 0.0 3.0 0.00 0.00 0.00 47 1018.0
20260903043726 78 135 0.0 3.0 0.00 0.00 0.00 47 1018.0
20260903043223 78 148 0.0 7.0 0.00 0.00 0.00 46 1018.3
20260903042723 78 133 0.0 7.0 0.00 0.00 0.00 46 1018.3
20260903042216 78 147 1.0 7.0 0.00 0.00 0.00 45 1018.3
20260903041707 78 132 0.0 8.0 0.00 0.00 0.00 45 1018.3
20260903041205 79 134 0.0 10.0 0.00 0.00 0.00 45 1018.0
20260903040700 79 150 0.0 10.0 0.00 0.00 0.00 45 1018.3
20260903040157 79 139 4.0 9.0 0.00 0.00 0.00 45 1018.3
20260903035920 79 145 2.0 10.0 0.00 0.00 0.00 45 1018.0
20260903035418 79 107 1.0 10.0 0.00 0.00 0.00 45 1018.3
20260903034636 80 174 5.0 10.0 0.00 0.00 0.00 44 1018.3
20260903034126 80 123 0.0 10.0 0.00 0.00 0.00 44 1018.3
20260903033626 80 141 0.0 10.0 0.00 0.00 0.00 44 1018.3
20260903033114 80 118 5.0 9.0 0.00 0.00 0.00 44 1018.3
20260903032614 80 121 0.0 9.0 0.00 0.00 0.00 44 1018.3
20260903032114 81 138 4.0 9.0 0.00 0.00 0.00 44 1018.3
20260903031603 81 151 0.0 8.0 0.00 0.00 0.00 45 1018.3
20260903031545 81 123 2.0 8.0 0.00 0.00 0.00 44 1018.3
20260903030549 82 153 4.0 9.0 0.00 0.00 0.00 44 1018.3
20260903030044 82 161 6.0 9.0 0.00 0.00 0.00 44 1018.3
20260903030027 82 171 2.0 9.0 0.00 0.00 0.00 43 1018.0
20260903025037 82 131 0.0 9.0 0.00 0.00 0.00 42 1018.0
20260903024755 83 131 1.0 9.0 0.00 0.00 0.00 42 1017.7
20260903024028 83 119 2.0 9.0 0.00 0.00 0.00 41 1018.0
20260903023511 83 131 1.0 13.0 0.00 0.00 0.00 40 1017.7
20260903023457 84 142 0.0 13.0 0.00 0.00 0.00 40 1017.3
20260903022506 84 124 4.0 11.0 0.00 0.00 0.00 39 1017.7
20260903022229 85 134 3.0 10.0 0.00 0.00 0.00 38 1017.3
20260903021457 85 119 6.0 10.0 0.00 0.00 0.00 37 1017.3
20260903021433 85 108 3.0 7.0 0.00 0.00 0.00 37 1017.3
20260903020450 86 99 2.0 7.0 0.00 0.00 0.00 36 1017.3
20260903015946 86 122 3.0 7.0 0.00 0.00 0.00 36 1017.3
20260903015658 86 154 1.0 7.0 0.00 0.00 0.00 36 1017.3
20260903015158 86 130 2.0 8.0 0.00 0.00 0.00 36 1017.3
20260903014416 86 142 1.0 8.0 0.00 0.00 0.00 36 1017.3
20260903013916 86 139 0.0 8.0 0.00 0.00 0.00 35 1017.0
20260903013414 86 129 1.0 8.0 0.00 0.00 0.00 35 1017.0
20260903012914 86 149 0.0 6.0 0.00 0.00 0.00 35 1017.0
20260903012411 86 127 0.0 6.0 0.00 0.00 0.00 35 1017.0
20260903011851 87 138 0.0 6.0 0.00 0.00 0.00 35 1017.0
20260903011344 87 132 0.0 6.0 0.00 0.00 0.00 35 1017.0
20260903011055 87 131 0.0 6.0 0.00 0.00 0.00 35 1017.0
20260903010335 88 142 0.0 7.0 0.00 0.00 0.00 34 1017.0
20260903005818 88 149 5.0 8.0 0.00 0.00 0.00 34 1017.0
20260903005314 88 130 6.0 8.0 0.00 0.00 0.00 34 1017.0
20260903004815 89 128 6.0 10.0 0.00 0.00 0.00 33 1017.0
20260903004526 89 140 1.0 10.0 0.00 0.00 0.00 32 1017.0
20260903003802 90 133 0.0 13.0 0.00 0.00 0.00 32 1017.0
20260903003238 90 135 3.0 13.0 0.00 0.00 0.00 32 1017.0
20260903002734 91 130 7.0 10.0 0.00 0.00 0.00 31 1016.7
20260903002226 91 161 3.0 10.0 0.00 0.00 0.00 30 1017.0
20260903001719 91 113 2.0 9.0 0.00 0.00 0.00 30 1017.0
20260903001215 91 141 5.0 9.0 0.00 0.00 0.00 30 1017.0
20260903000715 91 139 2.0 7.0 0.00 0.00 0.00 31 1016.7
20260903000230 90 146 2.0 6.0 0.00 0.00 0.00 31 1017.0
20260903000212 90 158 3.0 7.0 0.00 0.00 0.00 31 1016.7
20260902235908 90 141 0.0 4.0 0.00 0.00 0.00 31 1017.0
20260902234655 90 158 0.0 11.0 0.00 0.00 0.00 32 1017.0
20260902234149 90 146 0.0 13.0 0.00 0.00 0.00 31 1016.7
20260902233645 90 138 2.0 13.0 0.00 0.00 0.00 32 1016.7
20260902233357 89 134 2.0 9.0 0.00 0.00 0.00 31 1017.0
20260902232636 89 153 1.0 13.0 0.00 0.00 0.00 31 1017.0
20260902232127 89 142 0.0 13.0 0.00 0.00 0.00 32 1017.0
20260902231623 89 186 0.0 13.0 0.00 0.00 0.00 35 1016.7
20260902231125 91 152 2.0 13.0 0.00 0.00 0.00 31 1017.3
20260902230840 91 137 2.0 13.0 0.00 0.00 0.00 31 1017.3
20260902230115 90 123 0.0 10.0 0.00 0.00 0.00 31 1017.3
20260902225606 91 138 0.0 10.0 0.00 0.00 0.00 31 1017.0
20260902225053 90 101 3.0 11.0 0.00 0.00 0.00 31 1017.0
20260902224535 91 132 5.0 13.0 0.00 0.00 0.00 31 1017.0
20260902224022 93 123 4.0 13.0 0.00 0.00 0.00 30 1017.0
20260902223515 93 114 6.0 14.0 0.00 0.00 0.00 29 1017.3
20260902223007 94 139 8.0 14.0 0.00 0.00 0.00 29 1017.3
20260902222457 94 120 3.0 15.0 0.00 0.00 0.00 28 1017.0
20260902221944 94 142 11.0 15.0 0.00 0.00 0.00 29 1017.3
20260902221435 93 123 8.0 13.0 0.00 0.00 0.00 30 1017.0
20260902220935 92 115 7.0 13.0 0.00 0.00 0.00 30 1017.3
20260902220416 92 139 0.0 11.0 0.00 0.00 0.00 31 1017.3